Other Surface Observations
Issued by NWS Charleston, SC

Home | Current Version | Previous Version | Text Only | Print | Product List | Glossary On
Versions: 1 2 3 4 5 6 7 8 9 10 11 12 13 14 15 16 17 18 19 20 21 22 23 24 25 26 27 28 29 30 31 32 33 34 35 36 37 38 39 40 41 42 43 44 45 46 47 48 49 50
524
SXUS52 KCHS 181327
OSOCHS

MARINE OBSERVATIONS
NATIONAL WEATHER SERVICE CHARLESTON SC
900 AM EDT FRI AUG 18 2017

...DOWNTOWN CHARLESTON AND HARBOR...

CITY           SKY/WX    TMP DP  RH WIND       PRES   REMARKS
WATERFRONT PRK   N/A     83  78  84 W6        29.82R HX  93

...LAKE MOULTRIE...

CITY           SKY/WX    TMP DP  RH WIND       PRES   REMARKS
PINOPOLIS        N/A     81  79  94 W10       29.91R

...LAKE AND SUPPLEMENTAL COASTAL OBSERVATIONS...

STATION/POSITION TIME  TEMP    WIND        PRES    WAVE   SWELL
                       AIR SEA DIR/SP/G            HT/PER HT/PER/DIR
                 (UTC) (F)     (DEG/KT/KT) (MB)    (FT/S) (FT/S/D)
FORT PULASKI     1300   83 86  310/ 10/ 11 1016.3
SAPELO ISLAND    1300   83     310/  2     1016.0
WINYAH BAY       1245   83     260/  6     1015.0S
LAKE MURRAY      1320   84     260/  9/ 11 1014.2
ACE BASIN NERRS  1245   83     260/  2     1015.0S


...C-MAN AND BUOY OBSERVATIONS...

STATION/POSITION TIME  TEMP    WIND        PRES    WAVE   SWELL
                       AIR SEA DIR/SP/G            HT/PER HT/PER/DIR
                 (UTC) (F)     (DEG/KT/KT) (MB)    (FT/S) (FT/S/D)
BUOY 41004       1310   84 85  230/ 12/ 14 1015.2
BUOY 41008       1250   83 85  260/  6/  8 1015.9R   2/ 4   2/110/ 9
FOLLY BEACH CMAN 1300   84     260/  6/  8 1015.9R
CAPERS NS BUOY   1308   84 85  270/ 10/ 14 1015.1R
FRIPP NS BUOY    1308   84     290/ 10/ 12 1015.4R
5E ST. MARYS GA  1300      84                N/A     1/ 8


STATION/POSITION TIME  TEMP    WIND        PRES    WAVE   SWELL
                       AIR SEA DIR/SP/G            HT/PER HT/PER/DIR
                 (UTC) (F)     (DEG/KT/KT) (MB)    (FT/S) (FT/S/D)
FRYING PAN BUOY  1310   84 84  230/ 14/ 16 1014.9
BUOY 41025       1250   83 86  210/ 14/ 16 1014.7F   2/ 8   2/ 70/ 8
CAPE LOOKOUT NC  1300   84     200/  8/ 11 1014.4R
BUOY 41002       1250   83 84  220/ 14/ 16 1016.7R   2/ 6   2/ 80/ 8
BUOY 41010       1310   85 85  190/  8/  8 1017.2
ST AUGUSTINE FL  1300   81 81  190/  6/  7 1017.2R

$$




USA.gov is the U.S. government's official web portal to all federal, state and local government web resources and services.